Regional Weather Roundup
Issued by NWS Green Bay, WI

Home | Current Version | Previous Version | Text Only | Print | Product List | Glossary On
Versions: 1 2 3 4 5 6 7 8 9 10 11 12 13 14 15 16 17 18 19 20 21 22 23 24 25 26 27 28 29 30 31 32 33 34 35 36 37 38 39 40 41 42 43 44 45 46 47 48 49 50
000
ASUS43 KGRB 231611
RWRGRB

NORTH-CENTRAL AND NORTHEAST WISCONSIN REGIONAL WEATHER ROUNDUP
NATIONAL WEATHER SERVICE GREEN BAY WI
1100 AM CDT SAT MAY 23 2015

WIZ005-009-010>012-018-019-231700-
NORTH CENTRAL WISCONSIN

CITY           SKY/WX    TMP DP  RH WIND       PRES   REMARKS
IRONWOOD       SUNNY     72  37  28 SW13      30.20S
MANITOWISH WTR SUNNY     68  37  32 W6        30.25S
ARBOR VITAE    SUNNY     72  37  27 W10       30.25F
EAGLE RIVER    SUNNY     69  30  23 SW8       30.25F
LAND O LAKES   SUNNY     71  32  23 SW10G22   30.25F
RHINELANDER    MOSUNNY   70  35  27 SW13G20   30.27F
PHILLIPS       MOSUNNY   68  36  30 SW8       30.25F
ANTIGO         MOSUNNY   67  44  43 W7        30.28F
TOMAHAWK       MOSUNNY   67  39  35 W6        30.27F
MERRILL        NOT AVBL
$$

WIZ013-073-231700-
NORTHEAST WISCONSIN

CITY           SKY/WX    TMP DP  RH WIND       PRES   REMARKS
IRON MOUNTAIN  SUNNY     75  33  21 S10       30.22F
MARINETTE      MOSUNNY   68  37  32 W8        30.26F
OCONTO         SUNNY     69  38  32 SW8       30.27F
$$

WIZ017-030-035>037-045-231700-
CENTRAL WISCONSIN

CITY           SKY/WX    TMP DP  RH WIND       PRES   REMARKS
MEDFORD        SUNNY     68  44  42 SW3       30.26F
WAUSAU         SUNNY     67  43  41 CALM      30.25F
MOSINEE        SUNNY     66  43  42 VRB5      30.28F
MARSHFIELD     SUNNY     70  42  36 SW7       30.26F
WISC RAPIDS    SUNNY     71  38  29 SW8       30.28F
STEVENS POINT  SUNNY     69  39  33 W9        30.27F
WAUPACA        SUNNY     73  36  25 S7        30.28F
SHAWANO        MOSUNNY   70  39  32 SW5       30.28F
CLINTONVILLE   SUNNY     68  34  28 W6        30.28F
$$

WIZ038-039-048-051-231700-
FOX VALLEY

CITY           SKY/WX    TMP DP  RH WIND       PRES   REMARKS
NWS GREEN BAY  SUNNY     69  38  32 SW10      30.29F
APPLETON       MOSUNNY   68  34  28 S10       30.30F
OSHKOSH        SUNNY     70  38  31 SW12      30.29F
FOND DU LAC    SUNNY     72  36  26 SW13      30.30F
$$

WIZ022-050-052-231700-
EAST CENTRAL WISCONSIN

CITY           SKY/WX    TMP DP  RH WIND       PRES   REMARKS
STURGEON BAY   MOSUNNY   66  37  34 SW15      30.31F
MANITOWOC      SUNNY     61  40  45 SE9       30.31F
SHEBOYGAN      SUNNY     72  37  28 S9        30.30F
$$

LMZ563-521-522-541>543-231700-
LAKESHORE

STATION/POSITION TIME  TEMP    WIND        PRES    VSBY  WAVE
                       AIR SEA DIR/SP/G                  HT/PER
                 (UTC) (F)     (DEG/KT/KT) (MB)    (MI)  (FT/S)
SHEBOYGAN LKSHOR 1600   47     160/ 16/ 17 1026.9F
KEWAUNEE LKSHORE 1500   48     170/  9/ 12 1025.7F
TWO RIVERS CG    1505                      1026.6      6
NORTHPORT PIER   1500   64     220/  7/ 16 1025.1F
N MID LAKE BUOY  1550   40 36  200/ 16/ 17 1025.7F         2/ 3
SISTER BAY LKSHO 1502   63     260/ 13/ 15   N/A
STURGEON BAY CG  1500          170/  8     1026.6      6   3
CHAMBERS ISLAND  1500   57     170/  5/ 15 1025.4F
MENOMINEE LKSHOR 1500   60     180/ 12/ 15 1025.8F
$$



USA.gov is the U.S. government's official web portal to all federal, state and local government web resources and services.